Tracking 30102 objects as of 12-Dec-2024
HD Live streaming from Space Station
objects crossing your sky now

ONEWEB-0152

Track ONEWEB-0152 now!
10-day predictions
ONEWEB-0152 is classified as:


NORAD ID: 48043
Int'l Code: 2021-025B
Perigee: 1,215.7 km
Apogee: 1,218.1 km
Inclination: 87.9 °
Period: 109.6 minutes
Semi major axis: 7587 km
RCS: Unknown
Launch date: March 25, 2021
Source: United States (US)
Launch site: VOSTOCHNY COSMODROME (VOSTO)
Your satellite tracking list
Your tracking list is empty




NASA's NSSDC Master Catalog

Two Line Element Set (TLE):
1 48043U 21025B   24347.50995677 -.00000103  00000-0 -31617-3 0  9994
2 48043  87.8930  69.9542 0001626 102.0634 258.0678 13.13471734181136
Source of the keplerian elements: AFSPC